Voltar ao catálogo

CZ-3A R/B

AtivoHEO
NORAD 30324·ROCKET BODY·🇨🇳 China

Lançado Feb 2, 2007 de Xichang Satellite Launch Center

Loading…

Próximas Passagens (próximas 24 horas)

TLE

AtualizadoSource: Space-Track

Época: Sep 14, 2026, 14:05 UTC

1 30324U 07003B   26257.58707580  .00004666  00000-0  78779-3 0  9997
2 30324  24.6607 266.1375 5766049 243.2497  47.5920  4.40225122237413

Acompanhe CZ-3A R/B em tempo real com AllMySat

Download on the App Store